Simultaneous Nadir Overpasses (SNOs) Predictions

Prediction of SNOs between AQUA and GOES-15 Satellite Orbit:

Table of predicted SNOs for the next 14.0 days since TLE Epoch: 10/12/2012
Index Date Time (AQUA) AQUA Lat,Lon GOES-15 Lat,Lon Distance(km) Time Diff (sec)
1 10/12/2012 22:22:36 0.51,-131.93 -0.20,-135.38 391.77 80
2 10/13/2012 10:43:53 0.51,-137.10 0.18,-135.41 191.98 80
3 10/15/2012 10:31:42 -0.11,-134.15 0.18,-135.39 141.87 80
4 10/15/2012 22:53:06 -1.01,-139.34 -0.15,-135.34 454.02 80
5 10/17/2012 10:19:30 -0.70,-131.18 0.19,-135.36 474.97 80
6 10/17/2012 22:40:54 -0.41,-136.37 -0.16,-135.31 121.02 80
7 10/19/2012 22:28:42 0.21,-133.41 -0.16,-135.28 211.36 80
8 10/20/2012 10:49:57 0.85,-138.58 0.13,-135.31 372.23 80
9 10/22/2012 10:37:45 0.19,-135.62 0.14,-135.27 40.25 80
10 10/24/2012 10:25:32 -0.38,-132.65 0.13,-135.22 291.95 80
11 10/24/2012 22:46:55 -0.69,-137.84 -0.11,-135.17 304.82 80




NCC Satellite Simultaneous Nadir Overpasses (SNOs) Prediction Service
